, MO

(GMT )
Kansas City

Weather History for KMKC - August, 2014

Change the Weather History Date:

Thursday, August 14, 2014

  Actual Average Record
Temperature  
Mean Temperature 74 °F -  
Max Temperature 86 °F 85 °F 102 °F (2007)
Min Temperature 64 °F 67 °F 55 °F (2002)
Cooling Degree Days 9    
Growing Degree Days 24 (Base 50)    
Moisture  
Dew Point 60 °F    
Average Humidity 62    
Maximum Humidity 90    
Minimum Humidity 39    
Precipitation  
Precipitation 0.00 in - - ()
Sea Level Pressure  
Sea Level Pressure 30.03 in    
Wind  
Wind Speed 2 mph (ESE)    
Max Wind Speed 9 mph    
Max Gust Speed -    
Visibility 10 miles    
Events      
Averages and records for this station are not official NWS values.
T = Trace of Precipitation, MM = Missing Value Source: NWS Daily Summary

Daily Weather History Graph

Daily Weather History Graph

Search for Another Location

Airport or City:

Trip Planner

Search our weather history database for the weather conditions in past years. The results will help you decide how hot, cold, wet, or windy it might be!

Date:

Astronomy

Aug. 14, 2014 Rise Set
Actual Time 6:30 AM CDT 8:14 PM CDT
Civil Twilight 6:01 AM CDT 8:43 PM CDT
Nautical Twilight 5:27 AM CDT 9:17 PM CDT
Astronomical Twilight 4:50 AM CDT 9:54 PM CDT
Moon 10:41 PM CDT (8/14) 11:05 AM CDT (8/14)
Length of Visible Light 14h 41m
Length of Day
13h 44m
Waning Gibbous, 79% of the Moon is Illuminated
Aug 14
Waning Gibbous
Aug 17
Last Quarter
Aug 25
New
Sep 2
First Quarter
Sep 8
Full

Hourly Weather History & Observations

Time (CDT) Temp. Heat Index Dew Point Humidity Pressure Visibility Wind Dir Wind Speed Gust Speed Precip Events Conditions
12:54 AM 70.0 °F - 60.1 °F 71% 30.07 in 10.0 mi Calm Calm - N/A   Clear
1:54 AM 69.1 °F - 61.0 °F 75% 30.06 in 10.0 mi Calm Calm - N/A   Clear
2:54 AM 66.9 °F - 62.1 °F 84% 30.06 in 10.0 mi Calm Calm - N/A   Clear
3:54 AM 66.9 °F - 62.1 °F 84% 30.06 in 10.0 mi Calm Calm - N/A   Clear
4:54 AM 66.0 °F - 62.1 °F 87% 30.06 in 10.0 mi Calm Calm - N/A   Clear
5:54 AM 64.0 °F - 61.0 °F 90% 30.07 in 10.0 mi Calm Calm - N/A   Clear
6:54 AM 64.9 °F - 61.0 °F 87% 30.08 in 10.0 mi Calm Calm - N/A   Clear
7:54 AM 68.0 °F - 62.1 °F 81% 30.09 in 10.0 mi Calm Calm - N/A   Clear
8:54 AM 72.0 °F - 61.0 °F 68% 30.09 in 10.0 mi Calm Calm - N/A   Clear
9:54 AM 75.9 °F - 60.1 °F 58% 30.09 in 10.0 mi SE 4.6 mph - N/A   Clear
10:54 AM 77.0 °F - 60.1 °F 56% 30.08 in 10.0 mi SE 6.9 mph - N/A   Clear
12:54 PM 82.0 °F 82.4 °F 60.1 °F 47% 30.05 in 10.0 mi Calm Calm - N/A   Clear
1:54 PM 84.0 °F 83.5 °F 57.9 °F 41% 30.03 in 10.0 mi Variable 3.5 mph - N/A   Clear
2:54 PM 84.9 °F 84.8 °F 60.1 °F 43% 30.01 in 10.0 mi Calm Calm - N/A   Clear
3:54 PM 84.9 °F 84.8 °F 60.1 °F 43% 30.00 in 10.0 mi East 6.9 mph - N/A   Clear
4:54 PM 84.0 °F 83.5 °F 57.9 °F 41% 29.99 in 10.0 mi SSE 8.1 mph - N/A   Clear
5:54 PM 84.0 °F 83.3 °F 57.0 °F 40% 29.98 in 10.0 mi East 9.2 mph - N/A   Clear
6:54 PM 82.9 °F 82.1 °F 55.9 °F 39% 29.98 in 10.0 mi SSE 6.9 mph - N/A   Clear
7:54 PM 80.1 °F 80.7 °F 59.0 °F 48% 29.97 in 10.0 mi ESE 8.1 mph - N/A   Clear
8:54 PM 78.1 °F - 61.0 °F 56% 29.97 in 10.0 mi East 6.9 mph - N/A   Clear
9:54 PM 77.0 °F - 61.0 °F 58% 29.98 in 10.0 mi East 6.9 mph - N/A   Clear
10:54 PM 75.0 °F - 61.0 °F 62% 29.98 in 10.0 mi ESE 4.6 mph - N/A   Clear
11:54 PM 73.9 °F - 62.1 °F 66% 29.96 in 10.0 mi East 5.8 mph - N/A   Clear